Regional Weather Roundup
Issued by NWS

Home | Current Version | Previous Version | Graphics & Text | Print | Product List | Glossary On
Versions: 1 2 3 4 5 6 7 8 9 10 11 12 13 14 15 16 17 18 19 20 21 22 23 24 25 26 27 28 29 30 31 32 33 34 35 36 37 38 39 40 41 42 43 44 45 46 47 48 49 50
045
ASUS43 KTOP 161508
RWRKS

WEATHER ROUNDUP FOR KANSAS
NATIONAL WEATHER SERVICE GOODLAND KS
900 AM CST SAT DEC 16 2017

NOTE:  "FAIR" INDICATES FEW OR NO CLOUDS BELOW 12,000 FEET WITH NO
SIGNIFICANT WEATHER AND/OR OBSTRUCTIONS TO VISIBILITY.

KSZ001>006-013>018-027>032-041>047-161600-
NORTHWEST KANSAS

CITY           SKY/WX    TMP DP  RH WIND       PRES   REMARKS
GOODLAND       CLOUDY    32  13  45 N7        29.74R
HAYS           CLOUDY    29  19  66 SW7       29.78S
HILL CITY      CLEAR     28  15  58 NW3       29.75S
RUSSELL        CLOUDY    30  21  69 S9        29.77R
$$

KSZ061>065-074>080-084>089-161600-
SOUTHWEST KANSAS

CITY           SKY/WX    TMP DP  RH WIND       PRES   REMARKS
DODGE CITY     CLOUDY    33  21  61 S16       29.77F WCI  23
ELKHART        CLOUDY    37  21  53 SW12      29.71F WCI  29
GARDEN CITY    CLOUDY    27  18  69 S7        29.73F
GREAT BEND     CLOUDY    35  21  56 SW9       29.80R
LIBERAL        CLOUDY    30  22  72 S13       29.77S WCI  20
PRATT          CLOUDY    34  22  61 S15       29.82F WCI  25
$$

KSZ066>073-081>083-090>101-161600-
SOUTHEAST KANSAS

CITY           SKY/WX    TMP DP  RH WIND       PRES   REMARKS
CHANUTE        SUNNY     40  25  55 S16       29.96S WCI  31
COFFEYVILLE    SUNNY     41  26  55 S16       30.00S
HUTCHINSON     CLOUDY    37  26  64 S12       29.85R WCI  29
MEDICINE LODGE   N/A     35  24  64 S12       29.87S WCI  27
NEWTON         CLOUDY    40  25  55 S22       29.86S WCI  30
PARSONS        SUNNY     42  26  53 S12       29.99S
WICHITA INTL   CLOUDY    38  27  64 S15       29.89S WCI  29
WICHITA JABRA  SUNNY     40  27  59 S17       29.88F WCI  31
WICHITA MCCONL SUNNY     39  24  56 SW15      29.89S WCI  30
WINFIELD       SUNNY     41  28  60 S9        29.95S
$$

KSZ007>012-019>026-033>040-048>060-102>105-161600-
NORTHEAST KANSAS

CITY           SKY/WX    TMP DP  RH WIND       PRES   REMARKS
CONCORDIA      CLOUDY    36  23  59 SW5       29.80R
EMPORIA        CLOUDY    35  25  66 S9        29.88S
LAWRENCE       SUNNY     39  26  59 S8        29.89R
MANHATTAN      SUNNY     38  25  59 SW14      29.85R WCI  30
MARYSVILLE     CLOUDY    36  27  69 SW7       29.82R
OLATHE IND     SUNNY     40  26  57 S13       29.91R WCI  32
OLATHE EXE     SUNNY     37  25  61 S13       29.90R WCI  29
SALINA         CLOUDY    36  25  64 S10       29.83S WCI  28
TOPEKA BILLARD SUNNY    N/A N/A N/A S10       29.87R
TOPEKA FORBES  SUNNY     39  27  62 SW14      29.86R WCI  31
$$




USA.gov is the U.S. government's official web portal to all federal, state and local government web resources and services.